FW7617 Weather Reports


time (UTC)temp
C
wind
direction
speed
KPH
gust
KPH
rain 1hr
cm
rain 24hr
cm
rain mn
cm
humidity
%
barometer
mb
20260505171538 27 250 8.0 17.7 0.00 0.00 0.00 37 1009.2
20260505170538 27 226 4.8 12.9 0.00 0.00 0.00 37 1009.3
20260505165515 27 230 8.0 14.5 0.00 0.00 0.00 35 1009.4
20260505164515 27 242 6.4 11.3 0.00 0.00 0.00 36 1009.6
20260505163515 27 260 6.4 16.1 0.00 0.00 0.00 37 1009.6
20260505162515 26 255 6.4 14.5 0.00 0.00 0.00 38 1009.8
20260505161516 26 236 9.7 17.7 0.00 0.00 0.00 38 1009.8
20260505160516 26 255 9.7 17.7 0.00 0.00 0.00 38 1010.0
20260505152517 25 251 6.4 14.5 0.00 0.00 0.00 42 1010.4
20260505151517 25 258 4.8 8.0 0.00 0.00 0.00 46 1010.4
20260505150517 24 250 4.8 14.5 0.00 0.00 0.00 44 1010.4
20260505140558 22 256 4.8 11.3 0.00 0.00 0.00 50 1011.2
20260505124516 19 255 3.2 8.0 0.00 0.00 0.00 58 1011.2
20260505123516 19 240 3.2 8.0 0.00 0.00 0.00 60 1011.2
20260505122516 18 204 4.8 8.0 0.00 0.00 0.00 59 1011.0
20260505121516 18 223 3.2 6.4 0.00 0.00 0.00 59 1011.1
20260505120517 18 264 1.6 4.8 0.00 0.00 0.00 63 1011.0
20260505115517 18 268 1.6 8.0 0.00 0.00 0.00 67 1011.2
20260505114517 17 339 1.6 4.8 0.00 0.00 0.00 75 1011.1
20260505113537 16 46 1.6 3.2 0.00 0.00 0.00 78 1011.0
20260505112517 14 28 1.6 4.8 0.00 0.00 0.00 79 1011.0
20260505111518 13 42 1.6 4.8 0.00 0.00 0.00 81 1011.0
20260505110515 13 8 1.6 4.8 0.00 0.00 0.00 82 1011.1
20260505101516 12 72 1.6 3.2 0.00 0.00 0.00 84 1011.0
20260505100516 12 18 1.6 3.2 0.00 0.00 0.00 85 1010.9
20260505095516 12 339 1.6 3.2 0.00 0.00 0.00 85 1010.9
20260505094516 12 342 1.6 3.2 0.00 0.00 0.00 84 1010.9
20260505093516 12 338 1.6 3.2 0.00 0.00 0.00 82 1010.7
20260505092516 12 49 1.6 3.2 0.00 0.00 0.00 80 1010.2
20260505091537 12 31 1.6 6.4 0.00 0.00 0.00 81 1010.1
20260505090517 12 39 1.6 4.8 0.00 0.00 0.00 82 1010.1
20260505085516 12 56 1.6 3.2 0.00 0.00 0.00 83 1010.1
20260505084517 12 72 1.6 4.8 0.00 0.00 0.00 84 1010.1
20260505083517 11 32 0.0 3.2 0.00 0.00 0.00 84 1010.2
20260505082517 11 67 1.6 3.2 0.00 0.00 0.00 85 1010.1
20260505081518 11 360 1.6 3.2 0.00 0.00 0.00 84 1010.1
20260505080518 11 13 1.6 3.2 0.00 0.00 0.00 84 1010.1
20260505075518 11 22 1.6 1.6 0.00 0.00 0.00 83 1010.2
20260505074515 12 51 1.6 1.6 0.00 0.00 0.00 82 1010.1
20260505073515 12 21 1.6 3.2 0.00 0.00 0.00 81 1010.1
20260505072516 12 10 1.6 3.2 0.00 0.00 0.00 81 1010.1
20260505071516 12 51 0.0 1.6 0.00 0.00 0.00 80 1010.0
20260505070516 12 60 1.6 3.2 0.00 0.00 0.00 79 1010.0
20260505065516 13 17 1.6 3.2 0.00 0.00 0.00 77 1010.0
20260505064517 13 5 1.6 4.8 0.00 0.00 0.00 74 1010.0
20260505063517 13 13 1.6 4.8 0.00 0.00 0.00 72 1010.0
20260505062517 14 66 3.2 9.7 0.00 0.00 0.00 71 1010.0
20260505061517 15 44 1.6 3.2 0.00 0.00 0.00 69 1010.1
20260505060518 14 25 1.6 8.0 0.00 0.00 0.00 68 1010.0
20260505055518 14 229 1.6 6.4 0.00 0.00 0.00 69 1010.1
20260505054518 13 97 1.6 6.4 0.00 0.00 0.00 71 1010.2
20260505053515 12 18 3.2 6.4 0.00 0.00 0.00 74 1010.2
20260505052518 12 75 1.6 6.4 0.00 0.00 0.00 75 1010.2
20260505051515 12 49 1.6 4.8 0.00 0.00 0.00 74 1010.3
20260505050535 12 9 1.6 4.8 0.00 0.00 0.00 72 1010.3
20260505041517 13 4 1.6 4.8 0.00 0.00 0.00 66 1010.4
20260505040536 13 22 1.6 3.2 0.00 0.00 0.00 65 1010.4
20260505035517 14 7 1.6 4.8 0.00 0.00 0.00 63 1010.4
20260505034517 14 356 1.6 4.8 0.00 0.00 0.00 61 1010.4
20260505033517 14 42 1.6 4.8 0.00 0.00 0.00 61 1010.4
20260505032517 14 56 1.6 4.8 0.00 0.00 0.00 58 1010.4
20260505031538 14 38 1.6 4.8 0.00 0.00 0.00 59 1010.4
20260505030518 15 7 1.6 4.8 0.00 0.00 0.00 57 1010.4
20260505025518 15 352 1.6 4.8 0.00 0.00 0.00 55 1010.5
20260505024515 15 37 1.6 4.8 0.00 0.00 0.00 54 1010.5
20260505023518 15 52 1.6 4.8 0.00 0.00 0.00 53 1010.6
20260505022518 15 45 1.6 4.8 0.00 0.00 0.00 52 1010.6
20260505021515 15 53 1.6 4.8 0.00 0.00 0.00 51 1010.7
20260505020516 15 48 1.6 6.4 0.00 0.00 0.00 52 1010.7
20260505015516 15 68 1.6 3.2 0.00 0.00 0.00 52 1010.6
20260505014556 15 58 1.6 4.8 0.00 0.00 0.00 51 1010.5
20260505013516 16 60 3.2 4.8 0.00 0.00 0.00 49 1010.4
20260505012516 16 55 1.6 4.8 0.00 0.00 0.00 48 1010.3
20260505011516 16 29 1.6 4.8 0.00 0.00 0.00 48 1010.2
20260505010517 16 54 1.6 4.8 0.00 0.00 0.00 47 1010.1
20260505005516 17 46 1.6 3.2 0.00 0.00 0.00 47 1010.0
20260505004517 17 359 1.6 3.2 0.00 0.00 0.00 44 1009.9
20260505003517 18 339 0.0 3.2 0.00 0.00 0.00 40 1009.8
20260505002517 19 280 0.0 3.2 0.00 0.00 0.00 38 1009.7
20260505001537 20 266 1.6 4.8 0.00 0.00 0.00 37 1009.7
20260505000517 20 257 3.2 9.7 0.00 0.00 0.00 36 1009.5
20260504235538 20 253 3.2 8.0 0.00 0.00 0.00 34 1009.4
20260504234538 21 247 3.2 6.4 0.00 0.00 0.00 34 1009.2
20260504233515 21 251 4.8 12.9 0.00 0.00 0.00 34 1009.1
20260504232515 21 240 4.8 11.3 0.00 0.00 0.00 32 1009.0
20260504231515 21 259 4.8 12.9 0.00 0.00 0.00 33 1009.0
20260504230515 21 251 6.4 14.5 0.00 0.00 0.00 33 1008.9
20260504225516 22 224 6.4 14.5 0.00 0.00 0.00 32 1008.8
20260504224516 22 260 6.4 11.3 0.00 0.00 0.00 32 1008.8
20260504223516 22 255 4.8 12.9 0.00 0.00 0.00 32 1008.9
20260504222516 22 261 6.4 12.9 0.00 0.00 0.00 32 1008.9
20260504221556 22 262 6.4 12.9 0.00 0.00 0.00 32 1008.9
20260504220536 22 262 6.4 16.1 0.00 0.00 0.00 31 1009.0
20260504215517 22 223 8.0 14.5 0.00 0.00 0.00 30 1009.0
20260504214517 22 234 6.4 14.5 0.00 0.00 0.00 31 1009.1
20260504213517 22 248 6.4 12.9 0.00 0.00 0.00 31 1009.1
20260504212517 22 253 6.4 11.3 0.00 0.00 0.00 30 1009.2
20260504211517 22 254 6.4 12.9 0.00 0.00 0.00 30 1009.3
20260504210537 22 255 6.4 14.5 0.00 0.00 0.00 32 1009.3
20260504205517 22 256 8.0 16.1 0.00 0.00 0.00 31 1009.3
20260504204518 23 218 9.7 19.3 0.00 0.00 0.00 30 1009.2
20260504203515 23 236 9.7 19.3 0.00 0.00 0.00 30 1009.3
20260504202515 23 231 8.0 17.7 0.00 0.00 0.00 30 1009.2
20260504201515 23 257 6.4 14.5 0.00 0.00 0.00 30 1009.3
20260504200515 23 235 6.4 16.1 0.00 0.00 0.00 30 1009.3
20260504195516 23 260 8.0 19.3 0.00 0.00 0.00 30 1009.5
20260504194536 22 235 8.0 17.7 0.00 0.00 0.00 30 1009.5
20260504193516 22 240 9.7 17.7 0.00 0.00 0.00 30 1009.5
20260504192536 22 256 8.0 12.9 0.00 0.00 0.00 31 1009.6
20260504191516 22 254 8.0 12.9 0.00 0.00 0.00 30 1009.8
20260504190517 22 249 6.4 14.5 0.00 0.00 0.00 31 1009.8
20260504185537 22 241 6.4 12.9 0.00 0.00 0.00 30 1010.0
20260504184517 22 256 8.0 20.9 0.00 0.00 0.00 32 1010.1
20260504183517 22 257 8.0 16.1 0.00 0.00 0.00 33 1010.3
20260504182517 21 242 8.0 14.5 0.00 0.00 0.00 32 1010.4
20260504181517 22 220 9.7 20.9 0.00 0.00 0.00 30 1010.6
20260504180517 22 261 6.4 16.1 0.00 0.00 0.00 33 1010.8
20260504175518 21 271 4.8 12.9 0.00 0.00 0.00 34 1010.8
20260504174518 21 250 8.0 14.5 0.00 0.00 0.00 32 1010.9
20260504173558 21 256 9.7 19.3 0.00 0.00 0.00 32 1011.0
20260504172535 21 261 6.4 16.1 0.00 0.00 0.00 33 1011.2